YAOGAN-24

Last updated on Mon Sep 07 2026 00:02:45 GMT+0000 (Coordinated Universal Time)

1 40310U 14072A 26249.62730225 .00000878 00000+0 13447-3 0 9996 2 40310 98.1602 27.6966 0014707 9.3115 350.8364 14.76175757635733
UTC large
Height (km)
Speed (km/s)
/
Latitude / Longitude
Inclination (degrees)
Orbital Period (minutes)
Azimuth
Elevation
Range (km)
Doppler Factor

Next 0 passes for location: London (51.5072 / 0.1276)

No passes found over London.
YAOGAN-24